| time (UTC) | temp F | wind direction | speed MPH | gust MPH | rain 1hr in | rain 24hr in | rain mn in | humidity % | barometer mb |
| 20260508133912 | 72 | 106 | 3.0 | 7.0 | 0.00 | 0.00 | 0.00 | 31 | 1011.2 |
| 20260508133013 | 71 | 107 | 3.0 | 8.0 | 0.00 | 0.00 | 0.00 | 31 | 1011.0 |
| 20260508132113 | 71 | 106 | 3.0 | 7.0 | 0.00 | 0.00 | 0.00 | 32 | 1011.0 |
| 20260508131212 | 70 | 111 | 3.0 | 7.0 | 0.00 | 0.00 | 0.00 | 32 | 1010.8 |
| 20260508130312 | 70 | 112 | 4.0 | 8.0 | 0.00 | 0.00 | 0.00 | 32 | 1010.6 |
| 20260508125412 | 70 | 109 | 4.0 | 9.0 | 0.00 | 0.00 | 0.00 | 32 | 1010.5 |
| 20260508124512 | 70 | 121 | 3.0 | 10.0 | 0.00 | 0.00 | 0.00 | 32 | 1010.3 |
| 20260508122712 | 70 | 153 | 3.0 | 7.0 | 0.00 | 0.00 | 0.00 | 32 | 1010.2 |
| 20260508121812 | 70 | 116 | 4.0 | 8.0 | 0.00 | 0.00 | 0.00 | 32 | 1010.0 |
| 20260508120912 | 70 | 110 | 3.0 | 9.0 | 0.00 | 0.00 | 0.00 | 32 | 1010.1 |
| 20260508120012 | 70 | 113 | 3.0 | 8.0 | 0.00 | 0.00 | 0.00 | 32 | 1010.0 |
| 20260508115112 | 70 | 114 | 2.0 | 7.0 | 0.00 | 0.00 | 0.00 | 33 | 1010.1 |
| 20260508114212 | 70 | 104 | 2.0 | 7.0 | 0.00 | 0.00 | 0.00 | 33 | 1010.0 |
| 20260508113312 | 70 | 117 | 1.0 | 4.0 | 0.00 | 0.00 | 0.00 | 33 | 1009.9 |
| 20260508112412 | 70 | 111 | 1.0 | 3.0 | 0.00 | 0.00 | 0.00 | 33 | 1010.0 |
| 20260508111512 | 70 | 111 | 2.0 | 4.0 | 0.00 | 0.00 | 0.00 | 32 | 1009.9 |
| 20260508105712 | 70 | 129 | 2.0 | 6.0 | 0.00 | 0.00 | 0.00 | 32 | 1009.9 |
| 20260508104812 | 71 | 120 | 2.0 | 7.0 | 0.00 | 0.00 | 0.00 | 31 | 1009.9 |
| 20260508103912 | 70 | 116 | 1.0 | 6.0 | 0.00 | 0.00 | 0.00 | 32 | 1009.8 |
| 20260508103012 | 70 | 115 | 2.0 | 6.0 | 0.00 | 0.00 | 0.00 | 32 | 1009.9 |
| 20260508102112 | 70 | 116 | 1.0 | 6.0 | 0.00 | 0.00 | 0.00 | 32 | 1009.8 |
| 20260508101212 | 71 | 116 | 2.0 | 4.0 | 0.00 | 0.00 | 0.00 | 32 | 1009.7 |
| 20260508095412 | 71 | 115 | 3.0 | 8.0 | 0.00 | 0.00 | 0.00 | 30 | 1009.6 |
| 20260508094512 | 72 | 107 | 4.0 | 9.0 | 0.00 | 0.00 | 0.00 | 29 | 1009.5 |
| 20260508093612 | 72 | 112 | 3.0 | 9.0 | 0.00 | 0.00 | 0.00 | 28 | 1009.6 |
| 20260508092712 | 72 | 110 | 3.0 | 8.0 | 0.00 | 0.00 | 0.00 | 27 | 1009.6 |
| 20260508091812 | 72 | 114 | 4.0 | 7.0 | 0.00 | 0.00 | 0.00 | 25 | 1009.5 |
| 20260508090912 | 72 | 104 | 5.0 | 10.0 | 0.00 | 0.00 | 0.00 | 24 | 1009.5 |
| 20260508085112 | 73 | 96 | 4.0 | 9.0 | 0.00 | 0.00 | 0.00 | 21 | 1009.6 |
| 20260508084212 | 72 | 92 | 3.0 | 7.0 | 0.00 | 0.00 | 0.00 | 22 | 1009.6 |
| 20260508083312 | 73 | 97 | 1.0 | 7.0 | 0.00 | 0.00 | 0.00 | 23 | 1009.7 |
| 20260508080612 | 72 | 0 | 0.0 | 0.0 | 0.00 | 0.00 | 0.00 | 25 | 1009.6 |
| 20260508074812 | 74 | 108 | 2.0 | 3.0 | 0.00 | 0.00 | 0.00 | 23 | 1009.7 |
| 20260508073911 | 75 | 107 | 2.0 | 4.0 | 0.00 | 0.00 | 0.00 | 23 | 1009.7 |
| 20260508073013 | 75 | 99 | 2.0 | 4.0 | 0.00 | 0.00 | 0.00 | 23 | 1009.6 |
| 20260508072112 | 75 | 91 | 2.0 | 4.0 | 0.00 | 0.00 | 0.00 | 23 | 1009.4 |
| 20260508070311 | 76 | 100 | 2.0 | 4.0 | 0.00 | 0.00 | 0.00 | 22 | 1009.4 |
| 20260508065411 | 76 | 113 | 2.0 | 4.0 | 0.00 | 0.00 | 0.00 | 22 | 1009.3 |
| 20260508064511 | 75 | 246 | 0.0 | 4.0 | 0.00 | 0.00 | 0.00 | 23 | 1009.2 |
| 20260508063611 | 75 | 0 | 0.0 | 0.0 | 0.00 | 0.00 | 0.00 | 23 | 1009.3 |
| 20260508062711 | 75 | 261 | 0.0 | 2.0 | 0.00 | 0.00 | 0.00 | 23 | 1009.4 |
| 20260508061811 | 75 | 0 | 0.0 | 0.0 | 0.00 | 0.00 | 0.00 | 23 | 1009.4 |
| 20260508060911 | 75 | 0 | 0.0 | 0.0 | 0.00 | 0.00 | 0.00 | 23 | 1009.3 |
| 20260508060011 | 76 | 0 | 0.0 | 0.0 | 0.00 | 0.00 | 0.00 | 21 | 1009.3 |
| 20260508054212 | 76 | 0 | 0.0 | 0.0 | 0.00 | 0.00 | 0.00 | 21 | 1009.3 |
| 20260508053311 | 77 | 261 | 0.0 | 1.0 | 0.00 | 0.00 | 0.00 | 20 | 1009.3 |
| 20260508052411 | 78 | 261 | 1.0 | 2.0 | 0.00 | 0.00 | 0.00 | 19 | 1009.2 |
| 20260508051511 | 77 | 262 | 0.0 | 1.0 | 0.00 | 0.00 | 0.00 | 19 | 1009.0 |
| 20260508050611 | 77 | 0 | 0.0 | 0.0 | 0.00 | 0.00 | 0.00 | 19 | 1009.0 |
| 20260508045711 | 78 | 0 | 0.0 | 0.0 | 0.00 | 0.00 | 0.00 | 19 | 1009.0 |
| 20260508044811 | 78 | 0 | 0.0 | 0.0 | 0.00 | 0.00 | 0.00 | 18 | 1008.9 |
| 20260508043012 | 79 | 0 | 0.0 | 0.0 | 0.00 | 0.00 | 0.00 | 17 | 1008.8 |
| 20260508042111 | 80 | 0 | 0.0 | 0.0 | 0.00 | 0.00 | 0.00 | 16 | 1008.7 |
| 20260508041211 | 81 | 0 | 0.0 | 0.0 | 0.00 | 0.00 | 0.00 | 16 | 1008.6 |
| 20260508040311 | 82 | 262 | 1.0 | 2.0 | 0.00 | 0.00 | 0.00 | 15 | 1008.6 |
| 20260508035411 | 82 | 262 | 2.0 | 3.0 | 0.00 | 0.00 | 0.00 | 14 | 1008.5 |
| 20260508034511 | 83 | 265 | 2.0 | 4.0 | 0.00 | 0.00 | 0.00 | 14 | 1008.3 |
| 20260508033611 | 84 | 274 | 2.0 | 4.0 | 0.00 | 0.00 | 0.00 | 14 | 1008.2 |
| 20260508032711 | 84 | 279 | 2.0 | 3.0 | 0.00 | 0.00 | 0.00 | 13 | 1008.0 |
| 20260508030911 | 86 | 270 | 3.0 | 4.0 | 0.00 | 0.00 | 0.00 | 13 | 1007.9 |
| 20260508030011 | 87 | 255 | 4.0 | 6.0 | 0.00 | 0.00 | 0.00 | 12 | 1007.7 |
| 20260508025111 | 88 | 255 | 5.0 | 8.0 | 0.00 | 0.00 | 0.00 | 11 | 1007.7 |
| 20260508024211 | 88 | 256 | 5.0 | 9.0 | 0.00 | 0.00 | 0.00 | 11 | 1007.6 |
| 20260508022411 | 89 | 253 | 6.0 | 10.0 | 0.00 | 0.00 | 0.00 | 10 | 1007.3 |
| 20260508021511 | 90 | 257 | 7.0 | 12.0 | 0.00 | 0.00 | 0.00 | 10 | 1007.3 |
| 20260508020611 | 90 | 262 | 7.0 | 14.0 | 0.00 | 0.00 | 0.00 | 9 | 1007.2 |
| 20260508015711 | 91 | 280 | 7.0 | 12.0 | 0.00 | 0.00 | 0.00 | 9 | 1007.1 |
| 20260508014811 | 92 | 278 | 6.0 | 11.0 | 0.00 | 0.00 | 0.00 | 9 | 1007.1 |
| 20260508013911 | 92 | 267 | 5.0 | 10.0 | 0.00 | 0.00 | 0.00 | 8 | 1007.0 |
| 20260508013012 | 93 | 263 | 5.0 | 9.0 | 0.00 | 0.00 | 0.00 | 8 | 1006.9 |
| 20260508012111 | 93 | 263 | 7.0 | 12.0 | 0.00 | 0.00 | 0.00 | 8 | 1007.0 |
| 20260508011211 | 94 | 276 | 6.0 | 11.0 | 0.00 | 0.00 | 0.00 | 8 | 1006.8 |
| 20260508010312 | 94 | 285 | 7.0 | 12.0 | 0.00 | 0.00 | 0.00 | 7 | 1006.9 |
| 20260508005411 | 95 | 266 | 6.0 | 13.0 | 0.00 | 0.00 | 0.00 | 7 | 1006.8 |
| 20260508004511 | 95 | 270 | 4.0 | 9.0 | 0.00 | 0.00 | 0.00 | 7 | 1006.7 |
| 20260508003612 | 95 | 231 | 3.0 | 9.0 | 0.00 | 0.00 | 0.00 | 7 | 1006.8 |
| 20260508001812 | 95 | 225 | 4.0 | 7.0 | 0.00 | 0.00 | 0.00 | 7 | 1006.7 |
| 20260508000911 | 96 | 265 | 4.0 | 12.0 | 0.00 | 0.00 | 0.00 | 6 | 1006.8 |
| 20260508000011 | 96 | 244 | 3.0 | 10.0 | 0.00 | 0.00 | 0.00 | 7 | 1006.8 |
| 20260507235111 | 95 | 192 | 3.0 | 7.0 | 0.00 | 0.00 | 0.00 | 6 | 1006.8 |
| 20260507234212 | 95 | 23 | 4.0 | 9.0 | 0.00 | 0.00 | 0.00 | 7 | 1006.9 |
| 20260507233311 | 96 | 291 | 3.0 | 10.0 | 0.00 | 0.00 | 0.00 | 6 | 1007.0 |
| 20260507232411 | 96 | 338 | 3.0 | 8.0 | 0.00 | 0.00 | 0.00 | 6 | 1007.0 |
| 20260507231511 | 96 | 307 | 4.0 | 9.0 | 0.00 | 0.00 | 0.00 | 6 | 1007.1 |
| 20260507230611 | 96 | 98 | 2.0 | 11.0 | 0.00 | 0.00 | 0.00 | 6 | 1007.1 |
| 20260507223012 | 96 | 267 | 3.0 | 9.0 | 0.00 | 0.00 | 0.00 | 6 | 1007.6 |
| 20260507222111 | 96 | 317 | 6.0 | 11.0 | 0.00 | 0.00 | 0.00 | 6 | 1007.8 |
| 20260507221211 | 98 | 301 | 6.0 | 12.0 | 0.00 | 0.00 | 0.00 | 6 | 1007.8 |
| 20260507220311 | 98 | 295 | 6.0 | 11.0 | 0.00 | 0.00 | 0.00 | 6 | 1008.0 |
| 20260507215411 | 96 | 272 | 3.0 | 10.0 | 0.00 | 0.00 | 0.00 | 6 | 1008.0 |
| 20260507213611 | 96 | 190 | 4.0 | 11.0 | 0.00 | 0.00 | 0.00 | 7 | 1008.3 |
| 20260507212711 | 96 | 190 | 3.0 | 10.0 | 0.00 | 0.00 | 0.00 | 7 | 1008.4 |
| 20260507211810 | 96 | 219 | 3.0 | 9.0 | 0.00 | 0.00 | 0.00 | 8 | 1008.6 |
| 20260507210911 | 97 | 182 | 4.0 | 8.0 | 0.00 | 0.00 | 0.00 | 8 | 1008.8 |
| 20260507210011 | 97 | 237 | 4.0 | 13.0 | 0.00 | 0.00 | 0.00 | 7 | 1008.8 |
| 20260507204210 | 97 | 273 | 3.0 | 10.0 | 0.00 | 0.00 | 0.00 | 8 | 1009.1 |
| 20260507203311 | 96 | 31 | 3.0 | 5.0 | 0.00 | 0.00 | 0.00 | 8 | 1009.2 |
| 20260507202411 | 94 | 299 | 4.0 | 9.0 | 0.00 | 0.00 | 0.00 | 8 | 1009.4 |
| 20260507201511 | 95 | 186 | 4.0 | 9.0 | 0.00 | 0.00 | 0.00 | 8 | 1009.5 |
| 20260507195710 | 95 | 213 | 3.0 | 8.0 | 0.00 | 0.00 | 0.00 | 9 | 1009.8 |
| 20260507194811 | 94 | 188 | 3.0 | 7.0 | 0.00 | 0.00 | 0.00 | 9 | 1009.9 |
| 20260507193912 | 94 | 184 | 3.0 | 10.0 | 0.00 | 0.00 | 0.00 | 10 | 1010.2 |
| 20260507193011 | 94 | 213 | 3.0 | 8.0 | 0.00 | 0.00 | 0.00 | 10 | 1010.3 |
| 20260507192111 | 94 | 154 | 2.0 | 8.0 | 0.00 | 0.00 | 0.00 | 10 | 1010.4 |
| 20260507191211 | 91 | 166 | 2.0 | 5.0 | 0.00 | 0.00 | 0.00 | 10 | 1010.6 |
| 20260507190310 | 91 | 161 | 3.0 | 4.0 | 0.00 | 0.00 | 0.00 | 10 | 1010.8 |
| 20260507184510 | 91 | 141 | 3.0 | 6.0 | 0.00 | 0.00 | 0.00 | 10 | 1010.9 |
| 20260507183610 | 90 | 117 | 4.0 | 8.0 | 0.00 | 0.00 | 0.00 | 11 | 1011.1 |
| 20260507182710 | 91 | 172 | 3.0 | 7.0 | 0.00 | 0.00 | 0.00 | 11 | 1011.2 |
| 20260507181810 | 90 | 249 | 3.0 | 9.0 | 0.00 | 0.00 | 0.00 | 12 | 1011.3 |
| 20260507180910 | 90 | 241 | 3.0 | 9.0 | 0.00 | 0.00 | 0.00 | 12 | 1011.4 |
| 20260507180011 | 89 | 196 | 4.0 | 13.0 | 0.00 | 0.00 | 0.00 | 13 | 1011.5 |
| 20260507175110 | 88 | 127 | 3.0 | 13.0 | 0.00 | 0.00 | 0.00 | 13 | 1011.5 |
| 20260507174210 | 88 | 160 | 3.0 | 7.0 | 0.00 | 0.00 | 0.00 | 15 | 1011.7 |
| 20260507173310 | 88 | 175 | 3.0 | 8.0 | 0.00 | 0.00 | 0.00 | 15 | 1011.9 |
| 20260507171511 | 86 | 151 | 4.0 | 9.0 | 0.00 | 0.00 | 0.00 | 15 | 1011.9 |
| 20260507170610 | 86 | 156 | 4.0 | 11.0 | 0.00 | 0.00 | 0.00 | 17 | 1012.0 |
| 20260507165710 | 84 | 146 | 2.0 | 9.0 | 0.00 | 0.00 | 0.00 | 18 | 1012.0 |
| 20260507164810 | 84 | 94 | 3.0 | 4.0 | 0.00 | 0.00 | 0.00 | 19 | 1012.1 |
| 20260507163910 | 84 | 116 | 3.0 | 7.0 | 0.00 | 0.00 | 0.00 | 19 | 1012.2 |
| 20260507163010 | 83 | 154 | 3.0 | 6.0 | 0.00 | 0.00 | 0.00 | 22 | 1012.1 |
| 20260507162110 | 81 | 150 | 2.0 | 6.0 | 0.00 | 0.00 | 0.00 | 23 | 1012.2 |
| 20260507161210 | 82 | 119 | 2.0 | 7.0 | 0.00 | 0.00 | 0.00 | 24 | 1012.3 |
| 20260507160310 | 82 | 129 | 3.0 | 5.0 | 0.00 | 0.00 | 0.00 | 24 | 1012.4 |
| 20260507155410 | 81 | 143 | 2.0 | 6.0 | 0.00 | 0.00 | 0.00 | 25 | 1012.5 |
| 20260507154510 | 81 | 99 | 3.0 | 7.0 | 0.00 | 0.00 | 0.00 | 24 | 1012.5 |
| 20260507153610 | 81 | 84 | 4.0 | 7.0 | 0.00 | 0.00 | 0.00 | 21 | 1012.5 |
| 20260507152710 | 80 | 91 | 5.0 | 8.0 | 0.00 | 0.00 | 0.00 | 22 | 1012.5 |
| 20260507151810 | 79 | 95 | 5.0 | 10.0 | 0.00 | 0.00 | 0.00 | 22 | 1012.5 |
| 20260507150910 | 79 | 87 | 5.0 | 10.0 | 0.00 | 0.00 | 0.00 | 22 | 1012.5 |
| 20260507150010 | 78 | 85 | 4.0 | 9.0 | 0.00 | 0.00 | 0.00 | 22 | 1012.4 |
| 20260507145110 | 78 | 66 | 4.0 | 10.0 | 0.00 | 0.00 | 0.00 | 23 | 1012.4 |
| 20260507144210 | 77 | 59 | 3.0 | 9.0 | 0.00 | 0.00 | 0.00 | 24 | 1012.4 |
| 20260507143310 | 76 | 38 | 2.0 | 5.0 | 0.00 | 0.00 | 0.00 | 26 | 1012.5 |
| 20260507142410 | 75 | 59 | 2.0 | 4.0 | 0.00 | 0.00 | 0.00 | 27 | 1012.5 |
| 20260507141510 | 73 | 60 | 2.0 | 4.0 | 0.00 | 0.00 | 0.00 | 29 | 1012.4 |
| 20260507135710 | 71 | 31 | 5.0 | 8.0 | 0.00 | 0.00 | 0.00 | 30 | 1012.2 |
| 20260507134810 | 70 | 25 | 6.0 | 12.0 | 0.00 | 0.00 | 0.00 | 30 | 1012.2 |